Theta_e
314 314 315 316 317 317 316 316 316 315 316 319 318 314 313 314 315 316 315 315 316 317 318 317 316 317 317 317 317 317 312 314 314 312 314 311 311 311 310 311 310 311 311 310 310
311 312 312 313 314 315 316 316 315 315 314 315 319 317 316 314 315 316 314 314 316 319 320 318 318 317 317 317 316 313 311 313 312 310 312 312 311 311 310 308 309 310 311 310 309
310 310 310 311 311 312 313 314 314 314 314 314 315 318 316 316 316 315 315 313 315 319 321 319 319 316 315 316 315 312 311 312 313 313 313 312 311 311 309 308 312 313 313 310 309
312 312 311 311 310 310 311 311 312 312 313 313 314 316 317 315 316 316 314 313 313 317 320 320 319 316 313 314 314 315 312 313 314 314 313 311 312 310 310 313 313 313 312 311 310
313 313 312 312 312 311 310 310 310 311 311 312 313 314 316 315 317 317 313 312 312 314 319 320 319 316 314 312 313 313 312 313 313 313 313 312 311 310 310 313 312 311 311 311 310
314 314 314 313 312 311 311 310 310 310 310 311 312 313 315 315 315 318 315 313 312 312 318 319 318 316 314 314 312 312 312 312 312 312 312 310 310 310 311 312 311 311 311 310 310
314 314 314 313 313 312 311 310 310 310 310 311 312 313 315 314 315 316 317 313 312 311 315 318 318 315 313 311 312 311 311 310 309 310 310 310 309 307 312 311 310 310 310 309 309
314 314 313 313 313 312 311 310 310 310 310 310 312 314 315 314 316 316 317 315 311 311 313 317 317 314 312 312 310 311 309 312 311 309 310 310 313 309 311 309 310 310 309 308 308
313 313 313 313 312 311 311 309 309 309 310 311 313 314 315 315 317 317 316 313 311 311 312 315 316 313 312 310 311 308 311 312 310 308 309 308 311 309 311 309 308 309 308 308 307
311 312 312 312 311 310 309 309 309 309 312 314 315 315 315 315 316 316 316 312 311 311 313 315 314 309 307 310 313 310 311 309 309 309 307 307 308 309 309 309 309 309 309 306 306
308 310 311 311 310 308 308 308 310 310 313 314 315 316 315 315 316 315 315 312 311 311 311 313 312 312 311 309 311 312 311 310 308 305 307 306 308 309 309 306 305 306 306 306 308
305 307 309 309 308 307 306 307 310 310 310 311 311 312 314 314 315 315 314 312 311 310 311 311 313 310 310 309 309 308 310 309 307 305 305 305 307 307 307 309 309 307 305 305 305
305 305 306 307 306 306 306 307 310 311 311 311 311 311 311 311 313 313 314 313 310 308 309 310 311 308 310 308 309 308 308 309 310 304 302 301 303 303 304 305 307 306 307 306 307
307 305 304 304 305 306 308 310 310 311 301 304 308 312 313 313 312 312 313 312 309 308 308 310 309 310 310 310 307 311 307 307 307 306 308 303 311 304 306 306 306 307 307 309 309
312 308 304 304 306 307 308 310 310 310 304 306 309 310 314 312 309 309 310 310 308 309 309 311 308 309 310 310 307 310 304 304 304 304 302 304 304 307 301 306 307 307 308 309 308
313 312 309 304 304 307 307 309 311 303 305 306 310 310 310 310 309 309 309 309 309 310 308 309 307 306 309 303 305 303 304 302 298 300 305 308 307 305 304 305 306 305 309 308 308
314 313 312 306 306 307 307 309 303 301 304 306 310 308 309 309 309 308 307 307 308 311 311 310 307 305 306 307 305 305 308 312 309 306 311 300 303 309 306 303 305 307 308 308 307
316 314 313 310 306 308 308 306 304 303 303 308 310 309 310 308 309 308 307 308 306 309 308 310 312 305 304 308 309 304 308 312 308 308 309 299 305 308 303 306 306 305 307 305 306
318 316 314 314 307 310 306 305 303 304 303 306 310 311 310 310 309 308 307 307 307 308 313 310 310 302 302 301 305 304 307 306 306 289 301 308 306 305 303 302 300 301 301 303 304
318 315 314 316 308 311 303 305 303 304 303 307 307 308 306 309 308 308 307 306 309 307 311 311 314 304 299 299 298 302 301 306 304 307 305 309 308 309 307 306 304 302 300 303 306
318 312 313 315 309 311 310 306 303 306 307 307 305 304 305 307 308 307 309 307 307 307 308 309 312 306 301 301 302 301 301 300 303 304 307 310 310 303 306 305 305 303 306 305 307
315 313 312 310 310 310 309 305 307 305 306 305 305 305 303 305 307 306 308 309 309 306 308 307 310 312 309 298 296 300 303 304 307 306 300 303 312 306 306 304 302 304 305 306 307
314 313 310 309 312 310 306 304 306 303 304 304 305 305 304 305 307 306 307 308 308 307 307 306 310 313 310 302 298 300 299 300 301 302 307 306 310 305 302 301 302 303 306 306 306
314 310 307 308 310 311 311 309 307 306 306 304 304 304 305 305 306 307 306 306 306 307 308 309 309 312 311 309 303 303 300 302 304 309 309 308 309 309 309 307 305 304 307 306 305
315 311 306 307 308 310 310 309 311 309 305 305 304 305 305 306 306 306 305 304 303 305 305 306 310 310 311 311 306 304 304 303 303 306 308 309 308 308 309 308 308 308 308 307 306
315 312 308 309 307 309 310 311 311 312 306 306 307 304 305 306 306 307 305 305 306 298 301 301 310 309 310 308 306 308 307 308 307 306 305 306 306 307 307 307 307 308 308 307 306
313 315 313 311 309 309 309 309 311 309 310 308 307 306 306 305 306 307 307 305 304 303 301 301 303 302 309 308 306 306 307 308 308 308 308 308 308 308 307 306 306 307 307 306 306
Wind_Speed
8 8 9 10 11 11 12 13 14 14 13 11 7 2 4 3 4 3 3 4 5 6 8 5 5 2 4 3 3 3 4 1 3 5 4 8 4 7 5 6 13 13 10 7 17
9 10 10 11 12 13 13 13 13 13 13 10 8 4 3 2 3 5 5 3 4 6 8 4 6 4 4 2 2 3 3 5 4 4 3 3 6 8 5 7 11 17 20 15 17
10 11 12 13 13 14 14 15 15 14 13 12 8 6 6 5 7 7 8 4 2 3 8 6 7 4 4 3 2 2 4 4 4 7 4 2 3 5 6 5 17 21 26 22 23
12 12 13 13 14 15 15 16 15 15 15 14 11 7 6 6 5 6 10 6 2 0 4 5 4 3 3 2 1 2 2 3 3 5 3 3 4 6 17 20 15 13 17 23 28
14 14 15 15 15 15 16 16 17 16 16 15 13 10 7 6 10 8 11 9 5 3 2 3 5 4 4 2 2 3 3 4 5 7 9 8 13 10 18 20 23 21 18 23 29
16 17 17 18 18 18 17 17 18 18 17 16 14 10 9 7 9 9 12 10 8 6 4 2 1 3 6 3 3 2 4 7 8 10 7 5 6 2 8 7 16 23 25 27 31
18 19 19 19 20 20 20 19 19 19 18 17 14 11 13 16 12 10 12 12 11 9 6 2 1 2 4 3 1 1 4 4 6 5 5 6 7 10 23 18 17 20 24 28 32
21 21 21 22 22 22 21 20 20 19 19 17 13 10 8 11 11 13 13 12 11 9 6 3 1 3 2 4 3 2 3 2 3 5 2 6 9 10 11 15 22 23 25 29 33
22 21 21 22 23 24 23 22 21 19 18 15 10 7 7 8 10 13 12 10 11 8 5 3 2 1 3 4 4 5 4 4 7 10 3 6 10 7 10 15 24 27 30 32 34
22 22 21 21 22 23 23 23 21 18 13 9 9 5 9 6 7 10 13 11 8 6 3 3 1 3 3 3 6 6 4 5 6 4 5 5 17 15 22 23 37 37 35 36 38
24 23 21 20 20 21 22 19 8 6 6 8 5 8 7 8 7 8 11 11 8 5 4 1 1 9 12 8 2 3 4 8 5 4 3 9 18 18 30 22 30 33 37 40 42
23 23 21 19 19 18 17 10 8 6 11 14 21 25 26 18 8 13 13 10 7 7 6 3 11 9 5 4 5 3 3 7 7 1 5 9 19 15 17 27 27 31 33 37 35
22 22 20 17 17 15 12 9 6 7 4 10 18 15 15 18 10 11 17 9 5 6 7 8 4 4 7 4 6 5 6 5 8 5 4 6 9 7 8 18 33 32 37 30 31
21 22 19 14 12 8 4 3 4 7 3 7 5 5 7 7 5 9 18 8 3 10 9 7 3 6 4 7 8 5 5 3 4 3 4 4 14 4 7 10 10 23 25 29 30
17 18 18 13 6 5 3 1 3 2 6 4 3 4 7 6 4 3 14 8 6 7 7 7 7 4 5 8 8 7 2 3 1 3 3 4 5 4 3 7 17 11 19 20 23
17 18 14 13 13 11 8 4 3 4 8 4 4 4 3 3 2 4 4 3 2 4 3 5 1 6 6 3 1 5 3 4 3 2 2 9 10 5 6 9 8 11 24 16 15
17 16 18 12 11 12 10 7 2 5 3 4 5 3 1 5 4 6 6 5 6 4 5 1 5 2 4 4 3 3 5 4 5 2 9 5 4 13 7 10 13 13 17 13 14
19 19 19 14 15 12 15 3 9 6 7 2 3 3 7 8 5 7 6 5 7 2 2 4 9 9 6 7 7 6 8 6 9 6 21 4 8 9 15 22 21 22 29 21 20
24 25 25 17 17 16 14 6 9 9 8 8 3 4 5 4 5 5 8 7 9 15 10 7 8 2 1 3 5 6 6 4 1 2 5 6 12 6 7 14 5 21 21 24 20
33 33 36 19 17 18 2 18 8 10 7 5 14 12 9 8 8 8 10 6 6 17 13 3 6 4 3 3 1 4 4 3 2 3 7 19 29 17 12 15 12 11 22 31 23
33 13 9 23 27 15 8 9 6 12 12 8 9 6 9 9 9 7 7 4 7 4 7 5 6 3 4 9 10 3 2 0 2 5 6 15 11 7 7 11 13 12 23 19 17
26 5 17 36 15 8 14 8 12 6 20 9 5 10 11 10 8 7 10 10 19 12 10 7 5 6 14 0 2 1 7 10 6 7 4 2 30 3 4 9 7 13 14 16 18
13 16 24 44 8 10 2 4 8 8 12 11 11 8 8 8 7 10 14 9 17 10 10 8 2 4 9 2 3 6 8 7 2 2 19 7 30 6 6 6 14 15 21 22 20
11 4 9 28 22 13 15 9 8 14 18 5 5 8 4 7 13 9 4 3 12 12 10 22 9 13 21 19 5 6 9 18 20 17 13 29 36 40 32 20 13 19 32 34 32
17 6 15 7 17 18 15 8 21 11 10 19 6 20 14 11 17 19 16 9 6 6 4 10 16 16 26 31 9 1 12 13 19 28 24 33 23 36 37 22 28 34 40 37 31
17 6 13 10 24 24 23 21 29 25 11 10 19 11 23 26 25 20 16 16 15 1 7 2 15 12 26 28 12 15 29 22 29 34 26 32 35 45 32 39 37 46 44 36 40
29 33 18 13 12 14 22 29 28 24 23 32 23 18 19 26 39 46 31 13 11 8 9 7 5 6 24 20 4 6 33 28 29 37 25 30 45 40 28 25 30 40 38 41 42
Wind_Direction
356 358 357 357 358 0 6 8 13 15 18 17 11 93 107 109 141 147 98 82 59 43 21 14 6 122 137 101 102 123 70 194 231 162 256 164 167 184 204 183 192 205 215 219 191
337 339 341 342 344 345 347 353 356 2 5 6 0 307 243 247 225 203 173 110 66 32 20 31 29 137 126 92 72 86 105 207 198 213 273 220 202 197 183 199 223 229 231 224 202
330 330 332 333 334 335 335 336 340 344 349 351 345 322 265 261 278 231 199 172 115 34 19 19 20 124 112 123 40 142 163 191 232 238 253 226 247 213 191 233 230 232 236 223 211
317 320 324 327 328 329 329 328 329 330 334 337 332 317 281 247 229 211 206 207 199 71 20 13 21 110 86 99 85 113 217 197 225 223 213 214 231 233 223 247 259 259 255 228 214
307 311 314 318 320 323 324 323 321 321 323 323 322 316 285 251 260 245 222 227 232 242 315 10 46 125 131 150 117 155 214 245 247 232 239 247 247 249 256 261 259 254 248 230 219
298 303 308 313 316 318 320 320 317 316 315 314 312 305 275 246 258 245 231 234 242 249 257 348 28 134 126 143 154 198 247 261 269 248 238 223 269 281 252 249 249 246 244 229 224
292 298 302 306 310 312 314 317 313 312 310 307 303 292 270 269 259 248 233 233 239 240 249 247 66 188 146 129 176 335 328 312 226 222 228 194 284 235 259 262 252 242 237 229 225
288 292 297 303 307 309 311 312 309 308 304 302 294 283 260 257 250 243 234 227 230 233 237 234 173 147 138 132 42 75 63 13 192 175 207 154 264 267 256 243 247 246 240 232 226
284 287 292 298 304 306 309 310 308 305 299 294 281 250 259 257 241 232 226 230 228 227 229 234 244 154 122 90 2 1 248 233 303 206 142 179 269 240 248 241 256 252 244 237 229
279 282 288 294 300 304 309 311 310 298 283 281 253 259 242 239 229 227 224 220 215 213 206 213 185 73 44 105 236 223 242 250 241 215 197 207 256 269 253 254 261 259 252 242 235
276 278 283 290 296 302 309 324 309 295 267 233 202 233 250 234 239 221 213 212 210 197 178 98 124 219 212 203 203 168 199 238 243 236 212 234 253 259 273 244 249 251 249 249 245
274 276 280 286 293 302 311 315 304 288 301 269 256 251 251 249 246 226 206 189 182 197 126 35 235 215 156 169 181 170 223 261 284 266 193 273 265 264 253 262 258 254 249 251 255
274 273 274 279 286 296 301 299 299 318 263 274 248 247 245 239 231 222 196 199 164 176 187 182 223 107 147 167 167 211 198 231 238 337 242 311 265 240 271 248 265 257 261 262 256
289 275 271 269 282 275 279 288 329 343 25 267 235 228 196 177 247 197 193 186 191 206 166 234 247 159 170 221 149 237 209 230 296 20 257 2 296 222 244 265 262 267 253 251 250
304 293 276 251 212 225 230 259 338 347 292 267 199 184 176 181 137 195 190 201 189 183 135 237 163 167 190 223 159 229 115 131 117 225 15 253 273 228 8 262 263 271 258 252 249
304 312 297 251 231 227 223 217 157 49 245 289 156 177 143 209 175 135 176 196 101 144 269 258 331 174 200 56 81 138 88 60 64 89 239 232 204 161 182 211 254 266 262 260 244
283 293 304 239 218 214 200 164 37 189 286 230 201 163 195 195 205 173 168 181 179 126 236 233 210 174 171 105 32 91 65 320 311 322 256 138 213 258 233 233 222 238 262 231 261
273 272 282 280 208 186 171 77 223 205 209 57 126 124 194 162 217 177 148 214 229 119 128 199 266 181 183 196 180 172 167 170 252 267 289 146 244 274 226 245 241 251 259 261 254
252 252 254 269 213 189 174 213 205 181 193 171 117 184 230 242 195 158 208 202 203 176 194 182 267 91 279 144 154 182 190 174 69 132 294 239 261 281 226 254 246 249 251 250 242
239 237 242 255 209 185 171 236 211 194 160 155 204 186 201 203 174 189 179 194 222 200 207 203 304 197 153 133 312 179 155 90 350 268 263 270 277 272 217 235 242 248 235 243 246
233 223 231 214 186 179 220 224 234 223 192 175 210 232 211 198 204 205 220 225 205 151 164 152 175 221 128 208 167 119 233 304 209 162 209 279 273 203 208 205 217 233 253 243 227
217 210 198 176 182 199 224 191 200 216 224 248 202 216 211 195 217 226 218 222 188 150 160 196 165 243 240 11 352 246 199 178 200 239 241 162 272 21 185 217 213 238 230 222 254
215 217 183 177 205 210 263 276 226 183 198 202 220 190 195 197 243 197 233 197 181 158 165 167 189 287 267 317 9 217 199 224 318 321 233 203 261 188 130 227 227 222 249 257 248
217 172 179 210 227 224 211 224 230 226 238 225 222 188 163 225 226 257 227 170 201 204 199 171 180 205 243 260 130 182 205 218 223 245 236 236 260 275 262 274 262 257 275 269 260
232 210 182 192 227 229 222 209 234 227 212 212 250 229 215 241 239 238 247 252 208 216 191 173 225 218 239 255 248 228 252 219 221 240 239 256 250 259 271 267 271 270 269 269 264
243 197 185 198 211 218 218 229 236 242 180 209 227 204 222 231 228 251 229 229 231 90 181 215 250 235 248 253 235 244 257 257 253 253 261 267 268 260 277 282 280 275 276 277 270
251 249 236 188 204 208 213 220 230 232 239 234 222 223 225 226 227 241 256 263 226 184 186 170 196 205 251 255 224 234 245 257 267 264 258 265 263 273 273 265 261 266 270 267 268